Tracking 19575 objects as of 18-Feb-2019
HD Live streaming from Space Station
objects crossing your sky now

OPS 9333 (IDSCS 18)

Track OPS 9333 (IDSCS 18) now!
OPS 9333 (IDSCS 18) is classified as:


NORAD ID: 2864
Int'l Code: 1967-066C
Perigee: 33,060.5 km
Apogee: 33,582.0 km
Inclination: 3.7 °
Period: 1,311.6 minutes
Semi major axis: 39692 km
RCS: 0.1584 m2 (medium)
Launch date: July 1, 1967
Source: United States (US)
Launch site: AIR FORCE EASTERN TEST RANGE (AFETR)
aabbcc
Your satellite tracking list
Your tracking list is empty




NASA's NSSDC Master Catalog

Two Line Element Set (TLE):
1  2864U 67066C   19048.30465997 -.00000075  00000-0  00000+0 0  9992
2  2864   3.7350 282.4944 0065694 358.9990 348.7511  1.09785510102239
Source of the keplerian elements: AFSPC